BEIDOU 14 1 38774U 12050A 21109.46135136 .00000065 00000-0 00000+0 0 9999 2 38774 55.0746 126.1487 0036633 227.1160 132.6203 1.86251801 58571 BEIDOU 15 1 38775U 12050B 21111.15327117 .00000083 00000-0 00000+0 0 9991 2 38775 55.1810 125.9148 0015811 315.7433 322.8932 1.86232301 58596